Regional Weather Roundup
Issued by NWS Upton, NY

Current Version | Previous Version | Text Only | Print | Product List | Glossary Off
Versions: 1 2 3 4 5 6 7 8 9 10 11 12 13 14 15 16 17 18 19 20 21 22 23 24 25 26 27

000
ASUS41 KOKX 241308
RWROKX

REGIONAL WEATHER ROUNDUP
NATIONAL WEATHER SERVICE NEW YORK NY
900 AM EDT MON APR 24 2017

NOTE: "FAIR" INDICATES FEW OR NO CLOUDS BELOW 12,000 FEET WITH NO
SIGNIFICANT WEATHER AND/OR OBSTRUCTIONS TO VISIBILITY.

NYZ071-072-176-178-NJZ106-104-241400-
NEW YORK CITY METRO AREA

CITY           SKY/WX    TMP DP  RH WIND       PRES   REMARKS
Central Park   CLOUDY    53  44  71 E6        30.19S
Wall St Helipt CLOUDY    52  46  80 VRB5      30.18S
Bronx Bot Gard   N/A     50  45  81 N5        30.19S
LaGuardia APRT CLOUDY    53  44  71 VRB5      30.17S
Kennedy INTL   CLOUDY    51  46  83 E7        30.19R
Breezy Point     N/A     48 N/A N/A E7          N/A
Newark/Liberty CLOUDY    53  44  71 E5        30.17R
Teterboro      CLOUDY    53  45  74 CALM      30.16S
$$

NYZ177-179-078>081-241400-
LONG ISLAND NEW YORK

CITY           SKY/WX    TMP DP  RH WIND       PRES   REMARKS
Jones Beach      N/A     48 N/A N/A E7          N/A
Matinecock PT    N/A     48 N/A N/A CALM        N/A
Farmingdale    CLOUDY    49  46  90 E5        30.18S
MacArthur/ISP  CLOUDY    50  45  83 E5        30.18R
Shirley        CLOUDY    49  43  80 CALM      30.20R
Mt Sinai Harb    N/A    N/A N/A N/A S2          N/A
Westhampton    CLOUDY    49  40  71 CALM      30.21R
East Hampton     N/A     47  39  75 S3        30.20R
Montauk          N/A     50  42  74 VRB3      30.21R
$$

NYZ052-065-067-241400-
HUDSON VALLEY

CITY           SKY/WX    TMP DP  RH WIND       PRES   REMARKS
White Plains   CLOUDY    49  44  83 VRB3      30.17R
Larchmont Harb   N/A     46 N/A N/A NE2         N/A
Croton O-T Hud   N/A     48 N/A N/A MISG        N/A
Newburgh       PTSUNNY   52  46  82 VRB5      30.17R
Montgomery     CLOUDY    52  46  80 CALM      30.15S
Poughkeepsie   CLOUDY    52  43  71 CALM      30.16R
Albany         PTSUNNY   53  41  63 NW3       30.18R
$$

NJZ001-105-106-008-010-013-015-019>022-104-241400-
NEW JERSEY

CITY           SKY/WX    TMP DP  RH WIND       PRES   REMARKS
Newark/Liberty CLOUDY    53  44  71 E5        30.17R
Teterboro      CLOUDY    53  45  74 CALM      30.16S
Caldwell       CLOUDY    50  44  80 CALM      30.17S
Somerville     CLOUDY    48  46  93 CALM      30.15R
Linden           N/A     52  45  76 SE5       30.17S
Sussex         CLOUDY    48  45  89 CALM      30.16S
Andover          N/A     49  46  90 CALM      30.16R
Trenton        CLOUDY    50  45  83 SE7       30.15R
Millville      CLOUDY    51  47  86 NE9       30.13R
Atlantic City  CLOUDY    53  46  77 NE14      30.14R
Wrightstown    CLOUDY    49  46  89 NE7       30.13R
Toms River     CLOUDY    50  45  83 NE5       30.17R
Belmar         CLOUDY    49  41  74 E10       30.17R
$$

PAZ047>061-062-071-241400-
EASTERN PENNSYLVANIA

CITY           SKY/WX    TMP DP  RH WIND       PRES   REMARKS
Philadelphia   CLOUDY    52  41  66 NE9       30.15R
Allentown      CLOUDY    51  45  79 NE5       30.15R
Scranton       CLOUDY    51  39  63 NE6       30.14R
$$

CTZ002-004>006-009-010-012-RIZ004-006-007-MAZ004-011-015-241400-
SOUTHERN NEW ENGLAND
 IN CT

CITY           SKY/WX    TMP DP  RH WIND       PRES   REMARKS
Bradley INTL   PTSUNNY   52  42  69 VRB3      30.18R
Hartford       SUNNY     53  43  68 S5        30.18R
Danbury        CLOUDY    50  43  77 NE5       30.18R
Wtrbury/Oxford PTSUNNY   52  41  66 CALM      30.19R
Bridgeport     CLOUDY    50  45  83 E6        30.19S
Meriden        MOSUNNY   53  44  71 S5        30.19R
New Haven      CLOUDY    49  45  86 S7        30.20R
Chester          N/A     54  43  66 CALM      30.19R
Groton         SUNNY     50  45  83 S5        30.19S
Wilimantic     SUNNY     51  41  68 CALM      30.19R

 IN RI

CITY           SKY/WX    TMP DP  RH WIND       PRES   REMARKS
Providence     PTSUNNY   52  45  76 S7        30.19R
Block Island   SUNNY     50  42  74 S7        30.21R
Westerly       SUNNY     53  45  74 VRB5      30.20S
 IN MA

CITY           SKY/WX    TMP DP  RH WIND       PRES   REMARKS
Boston         PTSUNNY   55  40  56 W6        30.16R
Worcester      MOSUNNY   56  36  47 W6        30.16R
Westfield      SUNNY     50  42  74 CALM      30.18R
Provincetown   SUNNY     51  44  77 S13       30.19R
Nantucket      PTSUNNY   46  42  86 S10       30.22R
$$

ANZ330-335-338-340-345-350-353-355-241400-
COASTAL MARINE OBSERVATIONS


STATION/POSITION TIME  SKY/WX   TEMP    WIND        PRES    VSBY  WAVE
                                AIR SEA DIR/SP/G                  HT/PER
                 (UTC)          (F)     (DEG/KT/KT) (MB)    (MI)  (FT/S)
NY HARB ENTRANCE 1150            49 49  100/  6/  8 1021.6          3/12
20 S FIRE ISLAND 1150            47 47   80/  8/ 10 1021.3          3/10
GREAT SOUTH BAY  1230            49 56  130/  6/  6   N/A
23 SSW MONTAUK P 1150            45 45              1022.5          3/11
15 E BARNEGAT LI 1230               51                N/A           4/11
HUDSON CANYON    1150            48 48   70/ 12/ 14 1020.8          4/11
KINGS POINT      1236            47 47     CALM     1021.7
EXECUTION ROCKS  NOT AVBL
CENTRAL LI SOUND NOT AVBL
EASTERN LI SOUND NOT AVBL
ROBBINS REEF     1248            50     170/  8/  9 1021.9
$$


>>>>>>>>>>>>>>>>>>>>>>>>>>>> KEY <<<<<<<<<<<<<<<<<<<<<<<<<<<
>                                                          <
>     SKY/WX - Sky Condition/Present Weather               <
>     TMP    - Temperature in Fahrenheit                   <
>     DP     - Dew Point in Fahrenheit                     <
>     RH     - Relative Humidity in Percent                <
>     WIND   - Direction (from) and Speed in MPH           <
>     PRES   - Mean Sea Level Pressure (inches of Hg)      <
>     WCI    - Wind Chill Index                            <
>     VSB    - VISIBILITY IN MILES                         <
>     HX     - HEAT INDEX                                  <
>     TC     - TEMPERATURE IN CELSIUS                      <
>     VRB    - VARIABLE WIND DIRECTION                     <
>                                                          <
>>>>>>>>>>>>>>>>>>>>>>>>>>>> KEY <<<<<<<<<<<<<<<<<<<<<<<<<<<




USA.gov is the U.S. government's official web portal to all federal, state and local government web resources and services.